Flag for Denmark Weather past 2 weeks in Kolding, Denmark

Now
37 °F

Chilly.


Feels Like: 30 °F
Forecast: 35 / 41 °F
Wind: 12 mph from South

Location: Vamdrup

Current Time: Mar 31, 2015 at 5:07:11 AM

Latest Report: Mar 31, 2015 at 4:20 AM


Visibility: N/A

Pressure: 29.15 "Hg

Humidity: 87%

Dew point: 34 °F

Location of KoldingLocation

Historic Weather in Kolding — Graph

°F

Kolding temperature yesterday

Maximum temperature yesterday: 45 °F (at 11:20 AM)
Minimum temperature yesterday: 39 °F (at 6:50 AM)
Average temperature yesterday: 42 °F

Past Weeks' High & Low Weather Summary

 TemperatureHumidityPressure
High57 °F (Mar 19, 3:50 PM)100% (Mar 20, 5:20 AM)30.57 "Hg (Mar 20, 5:20 AM)
Low27 °F (Mar 22, 6:50 AM)29% (Mar 19, 3:50 PM)29.00 "Hg (Mar 29, 9:50 PM)
Average41 °F81%29.93 "Hg
* Reported Mar 16 2:20 AM — Mar 31 3:50 AM, Kolding, Weather by CustomWeather, © 2015

Note: Actual official high and low records may vary slightly from our data, if they occured in-between our weather recording intervals... More about our weather records

Advertising

Kolding weather history for previous 24 hours

 ConditionsComfort  
Time TempWeatherWind HumidityBarometerVisibility
3:50 AM
Tue, Mar 31
37 °FChilly.14 mph87%29.21 "HgN/A
3:20 AM39 °FChilly.18 mph81%29.24 "HgN/A
2:50 AM41 °FQuite cool.17 mph81%29.27 "HgN/A
2:20 AM41 °FQuite cool.15 mph87%29.30 "HgN/A
1:50 AM41 °FQuite cool.14 mph87%29.33 "HgN/A
1:20 AM41 °FQuite cool.15 mph87%29.36 "HgN/A
12:50 AM39 °FChilly.10 mph87%29.39 "HgN/A
12:20 AM39 °FChilly.12 mph87%29.42 "HgN/A
11:50 PM
Mon, Mar 30
39 °FChilly.13 mph81%29.42 "HgN/A
11:20 PM39 °FChilly.13 mph81%29.45 "HgN/A
10:50 PM39 °FChilly.13 mph75%29.45 "HgN/A
10:20 PM39 °FChilly.13 mph81%29.47 "HgN/A
9:50 PM39 °FChilly.14 mph81%29.45 "HgN/A
9:20 PM39 °FChilly.16 mph81%29.47 "HgN/A
8:50 PM39 °FChilly.16 mph81%29.47 "HgN/A
8:20 PM41 °FQuite cool.16 mph76%29.45 "HgN/A
7:50 PM41 °FQuite cool.23 mph76%29.45 "HgN/A
7:20 PM43 °FQuite cool.21 mph71%29.45 "HgN/A
4:50 PM41 °FLight rain. Partly sunny.25 mph87%29.36 "HgN/A
3:50 PM45 °FLight rain. Partly sunny.22 mph71%29.30 "HgN/A
3:20 PM45 °FPartly sunny.23 mph76%29.30 "HgN/A
2:50 PM45 °FPartly sunny.24 mph71%29.27 "HgN/A
2:20 PM45 °FPartly sunny.21 mph76%29.24 "HgN/A
1:50 PM45 °FPartly sunny.22 mph76%29.24 "HgN/A
12:50 PM45 °FLight rain. Partly sunny.16 mph81%29.21 "HgN/A
12:20 PM43 °FLight rain. Partly sunny.25 mph81%29.18 "HgN/A
11:50 AM41 °FLight rain. Partly sunny.21 mph87%29.18 "HgN/A
11:20 AM45 °FPartly sunny.22 mph76%29.15 "HgN/A
10:20 AM43 °FPartly sunny.17 mph81%29.12 "HgN/A
9:50 AM43 °FPartly sunny.15 mph81%29.12 "HgN/A
8:50 AM41 °FScattered clouds.14 mph87%29.09 "HgN/A
8:20 AM41 °FPartly sunny.15 mph87%29.09 "HgN/A
7:50 AM39 °FChilly.14 mph93%29.06 "HgN/A
7:20 AM39 °FChilly.13 mph93%29.06 "HgN/A
6:50 AM39 °FChilly.13 mph93%29.06 "HgN/A
6:20 AM41 °FQuite cool.13 mph87%29.03 "HgN/A
5:50 AM41 °FQuite cool.15 mph87%29.03 "HgN/A
5:20 AM41 °FQuite cool.14 mph87%29.03 "HgN/A
Weather by CustomWeather, © 2015

See weather overviewHow to use our weather pages